Time,TemperatureF,DewpointF,PressureIn,WindDirection,WindDirectionDegrees,WindSpeedMPH,WindSpeedGustMPH,Humidity,HourlyPrecipIn,Conditions,Clouds,dailyrainin,SolarRadiationWatts/m^2,SoftwareType,DateUTC
2013-03-16 00:00:00,34.9,30.0,29.79,SE,138,0.0,1.0,82,0.00,,,0.00,0.0,meteohub,2013-03-16 04:00:00,
2013-03-16 00:02:00,34.9,30.0,29.79,SE,138,1.0,1.0,82,0.00,,,0.00,0.0,meteohub,2013-03-16 04:02:00,
2013-03-16 00:07:00,34.7,29.1,29.79,SE,137,0.0,1.0,80,0.00,,,0.00,0.0,meteohub,2013-03-16 04:07:00,
2013-03-16 00:12:00,34.9,28.8,29.79,ENE,71,0.0,1.0,78,0.00,,,0.00,0.0,meteohub,2013-03-16 04:12:00,
2013-03-16 00:18:00,34.9,27.7,29.79,ENE,63,1.0,5.0,75,0.00,,,0.00,0.0,meteohub,2013-03-16 04:18:00,
2013-03-16 00:23:00,35.1,28.6,29.80,NE,44,1.0,5.0,77,0.00,,,0.00,0.0,meteohub,2013-03-16 04:23:00,
2013-03-16 00:28:00,34.9,27.7,29.80,NE,44,0.0,3.0,75,0.00,,,0.00,0.0,meteohub,2013-03-16 04:28:00,
2013-03-16 00:33:00,34.9,27.5,29.80,NE,43,2.0,3.0,74,0.00,,,0.00,0.0,meteohub,2013-03-16 04:33:00,
2013-03-16 00:38:00,34.9,26.4,29.80,East,93,0.0,3.0,71,0.00,,,0.00,0.0,meteohub,2013-03-16 04:38:00,
2013-03-16 00:44:00,35.1,26.2,29.80,ESE,105,0.0,2.0,70,0.00,,,0.00,0.0,meteohub,2013-03-16 04:44:00,
2013-03-16 00:49:00,35.2,26.1,29.80,SSW,205,6.0,6.0,69,0.00,,,0.00,0.0,meteohub,2013-03-16 04:49:00,
2013-03-16 00:54:00,35.2,26.1,29.80,ESE,119,0.0,6.0,69,0.00,,,0.00,0.0,meteohub,2013-03-16 04:54:00,
2013-03-16 00:59:00,35.2,24.3,29.80,SE,141,0.0,6.0,64,0.00,,,0.00,0.0,meteohub,2013-03-16 04:59:00,
2013-03-16 01:04:00,35.2,23.9,29.80,NW,317,2.0,6.0,63,0.00,,,0.00,0.0,meteohub,2013-03-16 05:04:00,
2013-03-16 01:09:00,35.2,23.9,29.81,NNW,347,1.0,3.0,63,0.00,,,0.00,0.0,meteohub,2013-03-16 05:09:00,
2013-03-16 01:14:00,35.2,23.9,29.81,ENE,74,0.0,4.0,63,0.00,,,0.00,0.0,meteohub,2013-03-16 05:14:00,
2013-03-16 01:20:00,35.2,23.5,29.81,ENE,69,0.0,4.0,62,0.00,,,0.00,0.0,meteohub,2013-03-16 05:20:00,
2013-03-16 01:25:00,35.2,22.8,29.81,NNE,16,0.0,4.0,60,0.00,,,0.00,0.0,meteohub,2013-03-16 05:25:00,
2013-03-16 01:30:00,35.2,23.2,29.81,West,275,0.0,6.0,61,0.00,,,0.00,0.0,meteohub,2013-03-16 05:30:00,
2013-03-16 01:35:00,35.1,22.1,29.81,NNW,335,3.0,6.0,59,0.00,,,0.00,0.0,meteohub,2013-03-16 05:35:00,
2013-03-16 01:40:00,34.9,21.6,29.81,NE,49,2.0,9.0,58,0.00,,,0.00,0.0,meteohub,2013-03-16 05:40:00,
2013-03-16 01:46:00,34.7,21.0,29.81,NE,46,0.0,9.0,57,0.00,,,0.00,0.0,meteohub,2013-03-16 05:46:00,
2013-03-16 01:51:00,34.3,21.0,29.81,South,177,1.0,7.0,58,0.00,,,0.00,0.0,meteohub,2013-03-16 05:51:00,
2013-03-16 01:56:00,34.2,20.5,29.81,NE,52,0.0,7.0,57,0.00,,,0.00,0.0,meteohub,2013-03-16 05:56:00,
2013-03-16 02:01:00,34.0,19.6,29.82,NNE,25,1.0,5.0,55,0.00,,,0.00,0.0,meteohub,2013-03-16 06:01:00,
2013-03-16 02:07:00,33.8,19.8,29.82,NNW,336,1.0,4.0,56,0.00,,,0.00,0.0,meteohub,2013-03-16 06:07:00,
2013-03-16 02:12:00,33.6,19.9,29.82,ENE,75,4.0,5.0,57,0.00,,,0.00,0.0,meteohub,2013-03-16 06:12:00,
2013-03-16 02:17:00,33.4,19.4,29.82,NE,55,0.0,5.0,56,0.00,,,0.00,0.0,meteohub,2013-03-16 06:17:00,
2013-03-16 02:22:00,33.6,20.5,29.82,NNW,348,1.0,6.0,58,0.00,,,0.00,0.0,meteohub,2013-03-16 06:22:00,
2013-03-16 02:27:00,33.6,19.6,29.82,WSW,237,3.0,6.0,56,0.00,,,0.00,0.0,meteohub,2013-03-16 06:27:00,
2013-03-16 02:32:00,33.6,19.6,29.82,ENE,61,0.0,6.0,56,0.00,,,0.00,0.0,meteohub,2013-03-16 06:32:00,
2013-03-16 02:37:00,33.4,19.8,29.82,ENE,62,0.0,4.0,57,0.00,,,0.00,0.0,meteohub,2013-03-16 06:37:00,
2013-03-16 02:42:00,33.3,20.5,29.82,ENE,63,0.0,4.0,59,0.00,,,0.00,0.0,meteohub,2013-03-16 06:42:00,
2013-03-16 02:47:00,33.1,20.7,29.82,NNW,335,2.0,3.0,60,0.00,,,0.00,0.0,meteohub,2013-03-16 06:47:00,
2013-03-16 02:53:00,32.7,21.9,29.82,NNE,17,0.0,5.0,64,0.00,,,0.00,0.0,meteohub,2013-03-16 06:53:00,
2013-03-16 02:58:00,32.2,22.1,29.82,East,94,3.0,8.0,66,0.00,,,0.00,0.0,meteohub,2013-03-16 06:58:00,
2013-03-16 03:03:00,31.6,22.3,29.82,NE,38,1.0,8.0,68,0.00,,,0.00,0.0,meteohub,2013-03-16 07:03:00,
2013-03-16 03:08:00,31.3,22.3,29.83,ENE,70,9.0,9.0,69,0.00,,,0.00,0.0,meteohub,2013-03-16 07:08:00,
2013-03-16 03:13:00,30.9,22.6,29.83,NE,45,2.0,9.0,71,0.00,,,0.00,0.0,meteohub,2013-03-16 07:13:00,
2013-03-16 03:19:00,30.6,22.6,29.83,NNE,12,1.0,9.0,72,0.00,,,0.00,0.0,meteohub,2013-03-16 07:19:00,
2013-03-16 03:24:00,30.4,22.5,29.83,North,350,1.0,9.0,72,0.00,,,0.00,0.0,meteohub,2013-03-16 07:24:00,
2013-03-16 03:29:00,30.4,22.1,29.83,NNE,32,4.0,8.0,71,0.00,,,0.00,0.0,meteohub,2013-03-16 07:29:00,
2013-03-16 03:34:00,30.0,21.7,29.83,NE,34,1.0,9.0,71,0.00,,,0.00,0.0,meteohub,2013-03-16 07:34:00,
2013-03-16 03:39:00,30.0,21.4,29.84,NW,318,2.0,9.0,70,0.00,,,0.00,0.0,meteohub,2013-03-16 07:39:00,
2013-03-16 03:45:00,29.8,21.2,29.84,North,5,5.0,9.0,70,0.00,,,0.00,0.0,meteohub,2013-03-16 07:45:00,
2013-03-16 03:50:00,29.8,21.6,29.84,NE,36,1.0,7.0,71,0.00,,,0.00,0.0,meteohub,2013-03-16 07:50:00,
2013-03-16 03:55:00,29.8,21.9,29.84,NNE,25,1.0,12.0,72,0.00,,,0.00,0.0,meteohub,2013-03-16 07:55:00,
2013-03-16 04:00:00,29.7,21.7,29.84,North,351,0.0,12.0,72,0.00,,,0.00,0.0,meteohub,2013-03-16 08:00:00,
2013-03-16 04:06:00,29.7,22.1,29.84,North,5,2.0,12.0,73,0.00,,,0.00,0.0,meteohub,2013-03-16 08:06:00,
2013-03-16 04:11:00,29.7,21.4,29.85,North,0,1.0,8.0,71,0.00,,,0.00,0.0,meteohub,2013-03-16 08:11:00,
2013-03-16 04:16:00,29.7,21.4,29.85,NNE,22,0.0,5.0,71,0.00,,,0.00,0.0,meteohub,2013-03-16 08:16:00,
2013-03-16 04:22:00,29.5,21.2,29.85,NE,48,5.0,5.0,71,0.00,,,0.00,0.0,meteohub,2013-03-16 08:22:00,
2013-03-16 04:27:00,29.5,20.8,29.85,NE,36,2.0,6.0,70,0.00,,,0.00,0.0,meteohub,2013-03-16 08:27:00,
2013-03-16 04:32:00,29.5,21.2,29.85,West,272,7.0,8.0,71,0.00,,,0.00,0.0,meteohub,2013-03-16 08:32:00,
2013-03-16 04:37:00,29.5,21.2,29.85,NNW,329,0.0,8.0,71,0.00,,,0.00,0.0,meteohub,2013-03-16 08:37:00,
2013-03-16 04:42:00,29.3,21.0,29.85,NE,54,3.0,8.0,71,0.00,,,0.00,0.0,meteohub,2013-03-16 08:42:00,
2013-03-16 04:47:00,29.1,20.8,29.85,NNE,32,2.0,7.0,71,0.00,,,0.00,0.0,meteohub,2013-03-16 08:47:00,
2013-03-16 04:52:00,29.1,20.8,29.85,NE,47,0.0,6.0,71,0.00,,,0.00,0.0,meteohub,2013-03-16 08:52:00,
2013-03-16 04:57:00,28.9,21.0,29.85,ESE,115,0.0,6.0,72,0.00,,,0.00,0.0,meteohub,2013-03-16 08:57:00,
2013-03-16 05:02:00,28.9,21.0,29.85,WNW,294,1.0,4.0,72,0.00,,,0.00,0.0,meteohub,2013-03-16 09:02:00,
2013-03-16 05:08:00,28.8,20.5,29.85,NNE,32,1.0,3.0,71,0.00,,,0.00,0.0,meteohub,2013-03-16 09:08:00,
2013-03-16 05:13:00,28.8,20.3,29.86,NNE,14,1.0,3.0,70,0.00,,,0.00,0.0,meteohub,2013-03-16 09:13:00,
2013-03-16 05:18:00,28.6,20.1,29.86,NNW,346,0.0,4.0,70,0.00,,,0.00,0.0,meteohub,2013-03-16 09:18:00,
2013-03-16 05:23:00,28.6,19.8,29.86,NNE,23,1.0,4.0,69,0.00,,,0.00,0.0,meteohub,2013-03-16 09:23:00,
2013-03-16 05:29:00,28.6,19.4,29.86,NE,55,0.0,4.0,68,0.00,,,0.00,0.0,meteohub,2013-03-16 09:29:00,
2013-03-16 05:34:00,28.4,19.2,29.86,NE,51,0.0,6.0,68,0.00,,,0.00,0.0,meteohub,2013-03-16 09:34:00,
2013-03-16 05:39:00,28.2,18.3,29.86,NNW,337,0.0,6.0,66,0.00,,,0.00,0.0,meteohub,2013-03-16 09:39:00,
2013-03-16 05:44:00,28.2,18.3,29.86,North,10,1.0,7.0,66,0.00,,,0.00,0.0,meteohub,2013-03-16 09:44:00,
2013-03-16 05:50:00,28.2,18.3,29.86,NE,54,2.0,7.0,66,0.00,,,0.00,0.0,meteohub,2013-03-16 09:50:00,
2013-03-16 05:55:00,28.0,17.8,29.86,NE,55,2.0,7.0,65,0.00,,,0.00,0.0,meteohub,2013-03-16 09:55:00,
2013-03-16 06:00:00,28.0,17.8,29.86,NNW,342,2.0,6.0,65,0.00,,,0.00,0.0,meteohub,2013-03-16 10:00:00,
2013-03-16 06:05:00,27.9,17.6,29.86,East,97,2.0,7.0,65,0.00,,,0.00,0.0,meteohub,2013-03-16 10:05:00,
2013-03-16 06:10:00,27.9,18.0,29.86,NE,54,0.0,4.0,66,0.00,,,0.00,0.0,meteohub,2013-03-16 10:10:00,
2013-03-16 06:15:00,27.9,18.0,29.87,NE,34,0.0,4.0,66,0.00,,,0.00,0.0,meteohub,2013-03-16 10:15:00,
2013-03-16 06:21:00,27.7,17.8,29.87,NE,52,0.0,4.0,66,0.00,,,0.00,0.0,meteohub,2013-03-16 10:21:00,
2013-03-16 06:26:00,27.5,18.3,29.87,NE,51,0.0,4.0,68,0.00,,,0.00,0.0,meteohub,2013-03-16 10:26:00,
2013-03-16 06:31:00,27.3,17.8,29.87,ENE,69,0.0,3.0,67,0.00,,,0.00,0.0,meteohub,2013-03-16 10:31:00,
2013-03-16 06:37:00,27.3,18.1,29.88,ENE,69,0.0,5.0,68,0.00,,,0.00,0.0,meteohub,2013-03-16 10:37:00,
2013-03-16 06:42:00,27.1,18.0,29.88,ENE,69,0.0,5.0,68,0.00,,,0.00,0.0,meteohub,2013-03-16 10:42:00,
2013-03-16 06:47:00,27.1,18.0,29.88,ENE,69,0.0,1.0,68,0.00,,,0.00,0.0,meteohub,2013-03-16 10:47:00,
2013-03-16 06:52:00,27.0,17.8,29.88,East,88,1.0,1.0,68,0.00,,,0.00,0.0,meteohub,2013-03-16 10:52:00,
2013-03-16 06:57:00,27.0,17.8,29.88,ENE,65,0.0,2.0,68,0.00,,,0.00,0.0,meteohub,2013-03-16 10:57:00,
2013-03-16 07:02:00,26.8,17.6,29.88,ENE,65,0.0,2.0,68,0.00,,,0.00,0.0,meteohub,2013-03-16 11:02:00,
2013-03-16 07:07:00,26.8,17.6,29.88,ENE,65,0.0,2.0,68,0.00,,,0.00,0.0,meteohub,2013-03-16 11:07:00,
2013-03-16 07:12:00,26.6,17.4,29.88,ENE,65,0.0,1.0,68,0.00,,,0.00,5.0,meteohub,2013-03-16 11:12:00,
2013-03-16 07:17:00,26.4,17.6,29.89,ENE,65,0.0,1.0,69,0.00,,,0.00,7.0,meteohub,2013-03-16 11:17:00,
2013-03-16 07:23:00,26.2,18.1,29.89,ENE,65,0.0,0.0,71,0.00,,,0.00,9.0,meteohub,2013-03-16 11:23:00,
2013-03-16 07:28:00,26.1,17.6,29.89,ENE,65,0.0,0.0,70,0.00,,,0.00,12.0,meteohub,2013-03-16 11:28:00,
2013-03-16 07:33:00,26.1,18.0,29.89,ENE,65,0.0,0.0,71,0.00,,,0.00,18.0,meteohub,2013-03-16 11:33:00,
2013-03-16 07:39:00,25.9,18.5,29.89,ENE,65,0.0,0.0,73,0.00,,,0.00,23.0,meteohub,2013-03-16 11:39:00,
2013-03-16 07:44:00,25.9,17.8,29.89,ENE,65,0.0,0.0,71,0.00,,,0.00,30.0,meteohub,2013-03-16 11:44:00,
2013-03-16 07:49:00,26.1,18.0,29.90,ENE,65,0.0,0.0,71,0.00,,,0.00,35.0,meteohub,2013-03-16 11:49:00,
2013-03-16 07:54:00,26.1,17.6,29.90,ENE,65,0.0,0.0,70,0.00,,,0.00,33.0,meteohub,2013-03-16 11:54:00,
2013-03-16 07:59:00,26.2,17.8,29.90,ENE,65,0.0,0.0,70,0.00,,,0.00,46.0,meteohub,2013-03-16 11:59:00,
2013-03-16 08:05:00,26.4,17.6,29.90,ENE,65,0.0,0.0,69,0.00,,,0.00,56.0,meteohub,2013-03-16 12:05:00,
2013-03-16 08:10:00,26.6,17.4,29.91,ENE,65,0.0,0.0,68,0.00,,,0.00,56.0,meteohub,2013-03-16 12:10:00,
2013-03-16 08:15:00,27.0,16.3,29.91,ENE,65,0.0,1.0,64,0.00,,,0.00,60.0,meteohub,2013-03-16 12:15:00,
2013-03-16 08:20:00,27.3,16.0,29.90,ENE,65,0.0,1.0,62,0.00,,,0.00,69.0,meteohub,2013-03-16 12:20:00,
2013-03-16 08:25:00,27.9,15.1,29.90,ENE,65,1.0,1.0,58,0.00,,,0.00,69.0,meteohub,2013-03-16 12:25:00,
2013-03-16 08:31:00,28.2,15.3,29.90,ENE,65,0.0,2.0,58,0.00,,,0.00,77.0,meteohub,2013-03-16 12:31:00,
2013-03-16 08:36:00,28.6,15.6,29.90,ENE,65,0.0,2.0,58,0.00,,,0.00,113.0,meteohub,2013-03-16 12:36:00,
2013-03-16 08:41:00,28.9,15.3,29.90,ENE,71,0.0,3.0,56,0.00,,,0.00,134.0,meteohub,2013-03-16 12:41:00,
2013-03-16 08:46:00,29.3,15.6,29.90,ENE,65,0.0,3.0,56,0.00,,,0.00,144.0,meteohub,2013-03-16 12:46:00,
2013-03-16 08:51:00,29.5,14.9,29.90,ENE,65,0.0,3.0,54,0.00,,,0.00,121.0,meteohub,2013-03-16 12:51:00,
2013-03-16 08:56:00,29.7,15.8,29.90,ENE,65,0.0,3.0,56,0.00,,,0.00,165.0,meteohub,2013-03-16 12:56:00,
2013-03-16 09:02:00,29.7,15.1,29.90,ENE,61,0.0,3.0,54,0.00,,,0.00,202.0,meteohub,2013-03-16 13:02:00,
2013-03-16 09:07:00,29.8,15.3,29.91,ENE,61,1.0,2.0,54,0.00,,,0.00,139.0,meteohub,2013-03-16 13:07:00,
2013-03-16 09:12:00,29.7,15.1,29.90,ENE,61,0.0,2.0,54,0.00,,,0.00,149.0,meteohub,2013-03-16 13:12:00,
2013-03-16 09:17:00,29.8,15.3,29.90,ENE,71,0.0,2.0,54,0.00,,,0.00,146.0,meteohub,2013-03-16 13:17:00,
2013-03-16 09:22:00,29.8,14.7,29.90,ENE,71,0.0,2.0,53,0.00,,,0.00,151.0,meteohub,2013-03-16 13:22:00,
2013-03-16 09:27:00,29.8,14.7,29.90,ENE,71,0.0,2.0,53,0.00,,,0.00,171.0,meteohub,2013-03-16 13:27:00,
2013-03-16 09:32:00,29.8,15.3,29.90,ENE,71,0.0,3.0,54,0.00,,,0.00,162.0,meteohub,2013-03-16 13:32:00,
2013-03-16 09:37:00,30.0,14.9,29.90,ENE,78,0.0,3.0,53,0.00,,,0.00,142.0,meteohub,2013-03-16 13:37:00,
2013-03-16 09:42:00,30.0,14.9,29.89,ENE,67,0.0,3.0,53,0.00,,,0.00,135.0,meteohub,2013-03-16 13:42:00,
2013-03-16 09:47:00,30.0,14.9,29.89,ENE,67,0.0,3.0,53,0.00,,,0.00,141.0,meteohub,2013-03-16 13:47:00,
2013-03-16 09:52:00,30.0,15.4,29.89,ENE,67,0.0,2.0,54,0.00,,,0.00,158.0,meteohub,2013-03-16 13:52:00,
2013-03-16 09:58:00,30.2,14.7,29.89,East,83,0.0,2.0,52,0.00,,,0.00,197.0,meteohub,2013-03-16 13:58:00,
2013-03-16 10:03:00,30.4,14.9,29.90,ENE,71,0.0,3.0,52,0.00,,,0.00,218.0,meteohub,2013-03-16 14:03:00,
2013-03-16 10:08:00,30.7,16.5,29.90,ENE,71,0.0,3.0,55,0.00,,,0.00,195.0,meteohub,2013-03-16 14:08:00,
2013-03-16 10:13:00,30.9,16.2,29.90,ENE,71,0.0,3.0,54,0.00,,,0.00,209.0,meteohub,2013-03-16 14:13:00,
2013-03-16 10:18:00,31.3,16.2,29.90,ENE,71,0.0,2.0,53,0.00,,,0.00,225.0,meteohub,2013-03-16 14:18:00,
2013-03-16 10:23:00,31.5,15.8,29.89,East,90,0.0,2.0,52,0.00,,,0.00,232.0,meteohub,2013-03-16 14:23:00,
2013-03-16 10:29:00,31.6,16.0,29.89,ENE,70,1.0,3.0,52,0.00,,,0.00,227.0,meteohub,2013-03-16 14:29:00,
2013-03-16 10:34:00,31.6,15.6,29.89,East,84,0.0,3.0,51,0.00,,,0.00,278.0,meteohub,2013-03-16 14:34:00,
2013-03-16 10:39:00,31.6,16.0,29.89,East,84,0.0,3.0,52,0.00,,,0.00,323.0,meteohub,2013-03-16 14:39:00,
2013-03-16 10:44:00,32.0,16.0,29.88,East,84,0.0,2.0,51,0.00,,,0.00,339.0,meteohub,2013-03-16 14:44:00,
2013-03-16 10:49:00,32.4,15.8,29.88,East,82,0.0,2.0,50,0.00,,,0.00,362.0,meteohub,2013-03-16 14:49:00,
2013-03-16 10:54:00,32.5,16.0,29.88,East,93,0.0,2.0,50,0.00,,,0.00,452.0,meteohub,2013-03-16 14:54:00,
2013-03-16 10:59:00,32.5,15.4,29.87,ESE,103,0.0,3.0,49,0.00,,,0.00,376.0,meteohub,2013-03-16 14:59:00,
2013-03-16 11:05:00,32.5,15.4,29.87,ESE,103,0.0,3.0,49,0.00,,,0.00,329.0,meteohub,2013-03-16 15:05:00,
2013-03-16 11:10:00,32.5,16.0,29.87,ESE,103,0.0,3.0,50,0.00,,,0.00,410.0,meteohub,2013-03-16 15:10:00,
2013-03-16 11:15:00,32.9,16.7,29.86,SE,127,0.0,2.0,51,0.00,,,0.00,708.0,meteohub,2013-03-16 15:15:00,
2013-03-16 11:20:00,33.6,16.5,29.86,ENE,61,0.0,4.0,49,0.00,,,0.00,680.0,meteohub,2013-03-16 15:20:00,
2013-03-16 11:25:00,34.0,16.9,29.87,North,5,1.0,5.0,49,0.00,,,0.00,689.0,meteohub,2013-03-16 15:25:00,
2013-03-16 11:31:00,34.0,15.8,29.87,WSW,247,2.0,5.0,47,0.00,,,0.00,617.0,meteohub,2013-03-16 15:31:00,
2013-03-16 11:36:00,34.0,15.8,29.86,SE,142,0.0,3.0,47,0.00,,,0.00,649.0,meteohub,2013-03-16 15:36:00,
2013-03-16 11:41:00,34.2,18.0,29.86,NNE,17,2.0,5.0,51,0.00,,,0.00,654.0,meteohub,2013-03-16 15:41:00,
2013-03-16 11:47:00,34.5,16.3,29.86,WSW,252,3.0,5.0,47,0.00,,,0.00,643.0,meteohub,2013-03-16 15:47:00,
2013-03-16 11:52:00,34.9,17.2,29.86,ENE,77,1.0,5.0,48,0.00,,,0.00,696.0,meteohub,2013-03-16 15:52:00,
2013-03-16 11:57:00,35.1,16.3,29.86,East,100,3.0,5.0,46,0.00,,,0.00,689.0,meteohub,2013-03-16 15:57:00,
2013-03-16 12:02:00,35.2,17.6,29.85,NE,46,1.0,5.0,48,0.00,,,0.00,721.0,meteohub,2013-03-16 16:02:00,
2013-03-16 12:07:00,35.6,16.9,29.86,SSW,209,0.0,5.0,46,0.00,,,0.00,666.0,meteohub,2013-03-16 16:07:00,
2013-03-16 12:12:00,35.4,16.2,29.86,ESE,108,0.0,5.0,45,0.00,,,0.00,682.0,meteohub,2013-03-16 16:12:00,
2013-03-16 12:18:00,35.8,18.5,29.85,South,181,2.0,4.0,49,0.00,,,0.00,708.0,meteohub,2013-03-16 16:18:00,
2013-03-16 12:23:00,35.6,16.9,29.84,West,280,1.0,4.0,46,0.00,,,0.00,737.0,meteohub,2013-03-16 16:23:00,
2013-03-16 12:28:00,35.8,16.0,29.84,ENE,77,0.0,7.0,44,0.00,,,0.00,703.0,meteohub,2013-03-16 16:28:00,
2013-03-16 12:33:00,36.0,17.2,29.85,NE,42,0.0,7.0,46,0.00,,,0.00,629.0,meteohub,2013-03-16 16:33:00,
2013-03-16 12:38:00,36.3,17.6,29.85,NE,49,0.0,5.0,46,0.00,,,0.00,404.0,meteohub,2013-03-16 16:38:00,
2013-03-16 12:44:00,36.7,17.8,29.85,North,11,1.0,5.0,46,0.00,,,0.00,494.0,meteohub,2013-03-16 16:44:00,
2013-03-16 12:49:00,36.3,17.1,29.85,ENE,74,1.0,5.0,45,0.00,,,0.00,267.0,meteohub,2013-03-16 16:49:00,
2013-03-16 12:54:00,36.0,17.2,29.84,NW,311,1.0,3.0,46,0.00,,,0.00,406.0,meteohub,2013-03-16 16:54:00,
2013-03-16 12:59:00,36.0,17.2,29.84,ENE,76,1.0,3.0,46,0.00,,,0.00,712.0,meteohub,2013-03-16 16:59:00,
2013-03-16 13:04:00,36.3,16.5,29.84,East,93,1.0,3.0,44,0.00,,,0.00,438.0,meteohub,2013-03-16 17:04:00,
2013-03-16 13:10:00,36.5,16.7,29.84,ENE,78,0.0,3.0,44,0.00,,,0.00,642.0,meteohub,2013-03-16 17:10:00,
2013-03-16 13:15:00,36.7,18.3,29.84,ESE,103,0.0,3.0,47,0.00,,,0.00,434.0,meteohub,2013-03-16 17:15:00,
2013-03-16 13:20:00,36.9,17.4,29.84,East,92,1.0,3.0,45,0.00,,,0.00,369.0,meteohub,2013-03-16 17:20:00,
2013-03-16 13:25:00,37.0,16.7,29.84,East,92,0.0,2.0,43,0.00,,,0.00,309.0,meteohub,2013-03-16 17:25:00,
2013-03-16 13:30:00,37.0,17.1,29.84,East,98,2.0,3.0,44,0.00,,,0.00,283.0,meteohub,2013-03-16 17:30:00,
2013-03-16 13:35:00,36.5,16.2,29.84,East,83,0.0,3.0,43,0.00,,,0.00,167.0,meteohub,2013-03-16 17:35:00,
2013-03-16 13:40:00,36.3,16.0,29.84,East,83,0.0,3.0,43,0.00,,,0.00,162.0,meteohub,2013-03-16 17:40:00,
2013-03-16 13:45:00,36.0,15.6,29.84,East,83,0.0,3.0,43,0.00,,,0.00,176.0,meteohub,2013-03-16 17:45:00,
2013-03-16 13:50:00,35.8,16.0,29.83,East,83,0.0,2.0,44,0.00,,,0.00,186.0,meteohub,2013-03-16 17:50:00,
2013-03-16 13:55:00,35.4,15.6,29.84,East,83,1.0,2.0,44,0.00,,,0.00,179.0,meteohub,2013-03-16 17:55:00,
2013-03-16 14:00:00,35.2,16.5,29.84,WSW,242,2.0,3.0,46,0.00,,,0.00,225.0,meteohub,2013-03-16 18:00:00,
2013-03-16 14:06:00,35.1,15.8,29.84,WSW,242,0.0,3.0,45,0.00,,,0.00,246.0,meteohub,2013-03-16 18:06:00,
2013-03-16 14:11:00,35.1,17.4,29.84,WSW,244,0.0,3.0,48,0.00,,,0.00,237.0,meteohub,2013-03-16 18:11:00,
2013-03-16 14:17:00,35.2,17.1,29.84,WSW,244,0.0,3.0,47,0.00,,,0.00,325.0,meteohub,2013-03-16 18:17:00,
2013-03-16 14:22:00,35.6,18.3,29.85,NNW,344,0.0,2.0,49,0.00,,,0.00,274.0,meteohub,2013-03-16 18:22:00,
2013-03-16 14:27:00,36.0,18.7,29.84,ENE,57,2.0,3.0,49,0.00,,,0.00,422.0,meteohub,2013-03-16 18:27:00,
2013-03-16 14:32:00,36.3,18.0,29.84,ENE,70,0.0,3.0,47,0.00,,,0.00,285.0,meteohub,2013-03-16 18:32:00,
2013-03-16 14:38:00,36.3,18.5,29.83,SSW,208,0.0,3.0,48,0.00,,,0.00,450.0,meteohub,2013-03-16 18:38:00,
2013-03-16 14:43:00,36.7,18.9,29.83,ENE,64,0.0,3.0,48,0.00,,,0.00,457.0,meteohub,2013-03-16 18:43:00,
2013-03-16 14:48:00,36.9,18.0,29.83,South,190,0.0,3.0,46,0.00,,,0.00,313.0,meteohub,2013-03-16 18:48:00,
2013-03-16 14:53:00,37.0,19.2,29.82,SW,232,0.0,3.0,48,0.00,,,0.00,605.0,meteohub,2013-03-16 18:53:00,
2013-03-16 14:58:00,37.0,18.7,29.83,East,98,3.0,3.0,47,0.00,,,0.00,334.0,meteohub,2013-03-16 18:58:00,
2013-03-16 15:03:00,37.0,18.7,29.82,ESE,113,0.0,5.0,47,0.00,,,0.00,311.0,meteohub,2013-03-16 19:03:00,
2013-03-16 15:09:00,36.9,19.0,29.82,NE,41,0.0,5.0,48,0.00,,,0.00,264.0,meteohub,2013-03-16 19:09:00,
2013-03-16 15:14:00,36.7,18.3,29.81,SE,144,1.0,5.0,47,0.00,,,0.00,271.0,meteohub,2013-03-16 19:14:00,
2013-03-16 15:19:00,36.7,18.9,29.81,ENE,73,0.0,4.0,48,0.00,,,0.00,369.0,meteohub,2013-03-16 19:19:00,
2013-03-16 15:24:00,36.9,19.9,29.81,ENE,73,1.0,4.0,50,0.00,,,0.00,229.0,meteohub,2013-03-16 19:24:00,
2013-03-16 15:29:00,36.9,19.0,29.81,ENE,73,0.0,2.0,48,0.00,,,0.00,239.0,meteohub,2013-03-16 19:29:00,
2013-03-16 15:34:00,36.9,18.5,29.81,ENE,73,0.0,2.0,47,0.00,,,0.00,248.0,meteohub,2013-03-16 19:34:00,
2013-03-16 15:39:00,36.7,18.3,29.81,ENE,66,0.0,2.0,47,0.00,,,0.00,267.0,meteohub,2013-03-16 19:39:00,
2013-03-16 15:45:00,36.9,19.0,29.81,ENE,67,1.0,2.0,48,0.00,,,0.00,241.0,meteohub,2013-03-16 19:45:00,
2013-03-16 15:50:00,36.9,19.4,29.81,ENE,65,1.0,2.0,49,0.00,,,0.00,316.0,meteohub,2013-03-16 19:50:00,
2013-03-16 15:55:00,37.0,19.6,29.81,ESE,105,0.0,2.0,49,0.00,,,0.00,207.0,meteohub,2013-03-16 19:55:00,
2013-03-16 16:00:00,37.0,18.7,29.81,ESE,106,0.0,3.0,47,0.00,,,0.00,207.0,meteohub,2013-03-16 20:00:00,
2013-03-16 16:05:00,36.9,18.5,29.81,East,94,0.0,3.0,47,0.00,,,0.00,158.0,meteohub,2013-03-16 20:05:00,
2013-03-16 16:10:00,36.9,19.4,29.81,East,92,1.0,3.0,49,0.00,,,0.00,132.0,meteohub,2013-03-16 20:10:00,
2013-03-16 16:15:00,36.9,19.9,29.81,East,92,0.0,3.0,50,0.00,,,0.00,151.0,meteohub,2013-03-16 20:15:00,
2013-03-16 16:20:00,36.9,19.9,29.81,East,97,0.0,2.0,50,0.00,,,0.00,160.0,meteohub,2013-03-16 20:20:00,
2013-03-16 16:26:00,37.0,19.2,29.81,East,97,0.0,2.0,48,0.00,,,0.00,118.0,meteohub,2013-03-16 20:26:00,
2013-03-16 16:31:00,37.0,18.7,29.81,SSE,157,0.0,2.0,47,0.00,,,0.00,125.0,meteohub,2013-03-16 20:31:00,
2013-03-16 16:36:00,36.9,19.0,29.80,SSE,157,0.0,2.0,48,0.00,,,0.00,142.0,meteohub,2013-03-16 20:36:00,
2013-03-16 16:42:00,36.7,18.9,29.80,SSE,157,0.0,2.0,48,0.00,,,0.00,139.0,meteohub,2013-03-16 20:42:00,
2013-03-16 16:47:00,36.7,18.3,29.80,SSE,157,0.0,1.0,47,0.00,,,0.00,123.0,meteohub,2013-03-16 20:47:00,
2013-03-16 16:52:00,36.5,19.6,29.80,SSE,157,0.0,1.0,50,0.00,,,0.00,114.0,meteohub,2013-03-16 20:52:00,
2013-03-16 16:57:00,36.7,19.4,29.80,SSE,157,0.0,1.0,49,0.00,,,0.00,105.0,meteohub,2013-03-16 20:57:00,
2013-03-16 17:02:00,36.7,20.7,29.80,SSE,157,0.0,2.0,52,0.00,,,0.00,74.0,meteohub,2013-03-16 21:02:00,
2013-03-16 17:07:00,36.9,21.4,29.81,SSE,157,0.0,2.0,53,0.00,,,0.00,54.0,meteohub,2013-03-16 21:07:00,
2013-03-16 17:12:00,36.9,22.3,29.81,SSE,157,0.0,2.0,55,0.00,,,0.00,51.0,meteohub,2013-03-16 21:12:00,
2013-03-16 17:18:00,36.7,22.1,29.81,SSE,157,0.0,2.0,55,0.00,,,0.00,58.0,meteohub,2013-03-16 21:18:00,
2013-03-16 17:23:00,36.5,21.9,29.81,SSE,157,0.0,2.0,55,0.00,,,0.00,60.0,meteohub,2013-03-16 21:23:00,
2013-03-16 17:28:00,36.3,22.1,29.81,SW,217,1.0,2.0,56,0.00,,,0.00,47.0,meteohub,2013-03-16 21:28:00,
2013-03-16 17:34:00,36.1,22.8,29.81,SW,217,0.0,2.0,58,0.00,,,0.00,37.0,meteohub,2013-03-16 21:34:00,
2013-03-16 17:39:00,35.8,22.8,29.81,SW,217,0.0,2.0,59,0.00,,,0.00,39.0,meteohub,2013-03-16 21:39:00,
2013-03-16 17:44:00,35.4,22.5,29.81,SW,217,0.0,2.0,59,0.00,,,0.00,40.0,meteohub,2013-03-16 21:44:00,
2013-03-16 17:49:00,35.4,23.0,29.81,SW,217,0.0,2.0,60,0.00,,,0.00,44.0,meteohub,2013-03-16 21:49:00,
2013-03-16 17:54:00,35.2,22.8,29.82,SW,217,0.0,2.0,60,0.00,,,0.00,25.0,meteohub,2013-03-16 21:54:00,
2013-03-16 17:59:00,35.2,22.3,29.82,SW,217,1.0,2.0,59,0.00,,,0.00,30.0,meteohub,2013-03-16 21:59:00,
2013-03-16 18:04:00,35.2,22.3,29.82,SW,217,0.0,1.0,59,0.00,,,0.00,33.0,meteohub,2013-03-16 22:04:00,
2013-03-16 18:10:00,35.1,23.0,29.82,SW,217,0.0,2.0,61,0.00,,,0.00,32.0,meteohub,2013-03-16 22:10:00,
2013-03-16 18:15:00,35.1,23.4,29.82,SW,217,0.0,2.0,62,0.00,,,0.00,30.0,meteohub,2013-03-16 22:15:00,
2013-03-16 18:20:00,34.9,23.9,29.83,SW,217,0.0,1.0,64,0.00,,,0.00,32.0,meteohub,2013-03-16 22:20:00,
2013-03-16 18:25:00,34.9,24.6,29.83,SSW,213,0.0,1.0,66,0.00,,,0.00,26.0,meteohub,2013-03-16 22:25:00,
2013-03-16 18:31:00,34.7,24.8,29.83,SSW,213,0.0,1.0,67,0.00,,,0.00,18.0,meteohub,2013-03-16 22:31:00,
2013-03-16 18:36:00,34.5,25.3,29.84,SSW,213,0.0,1.0,69,0.00,,,0.00,16.0,meteohub,2013-03-16 22:36:00,
2013-03-16 18:42:00,34.3,25.5,29.84,SSW,213,0.0,1.0,70,0.00,,,0.00,12.0,meteohub,2013-03-16 22:42:00,
2013-03-16 18:47:00,34.2,25.7,29.84,SSW,213,0.0,0.0,71,0.00,,,0.00,9.0,meteohub,2013-03-16 22:47:00,
2013-03-16 18:52:00,34.0,25.5,29.84,SSW,213,0.0,1.0,71,0.00,,,0.00,5.0,meteohub,2013-03-16 22:52:00,
2013-03-16 18:57:00,33.6,25.2,29.84,SSW,213,0.0,1.0,71,0.00,,,0.00,0.0,meteohub,2013-03-16 22:57:00,
2013-03-16 19:02:00,33.6,25.5,29.85,SSW,213,0.0,0.0,72,0.00,,,0.00,0.0,meteohub,2013-03-16 23:02:00,
2013-03-16 19:07:00,33.4,25.7,29.85,SSW,213,0.0,0.0,73,0.00,,,0.00,0.0,meteohub,2013-03-16 23:07:00,
2013-03-16 19:12:00,33.4,25.7,29.85,SSW,213,0.0,0.0,73,0.00,,,0.00,0.0,meteohub,2013-03-16 23:12:00,
2013-03-16 19:17:00,33.4,25.3,29.85,SSW,213,0.0,0.0,72,0.00,,,0.00,0.0,meteohub,2013-03-16 23:17:00,
2013-03-16 19:23:00,33.3,23.9,29.85,SSW,213,0.0,0.0,68,0.00,,,0.00,0.0,meteohub,2013-03-16 23:23:00,
2013-03-16 19:28:00,33.1,22.3,29.85,SSW,213,0.0,0.0,64,0.00,,,0.00,0.0,meteohub,2013-03-16 23:28:00,
2013-03-16 19:33:00,33.1,23.0,29.85,SSW,213,0.0,0.0,66,0.00,,,0.00,0.0,meteohub,2013-03-16 23:33:00,
2013-03-16 19:38:00,32.9,22.8,29.85,SSW,213,0.0,0.0,66,0.00,,,0.00,0.0,meteohub,2013-03-16 23:38:00,
2013-03-16 19:43:00,32.7,23.0,29.86,SSW,213,0.0,0.0,67,0.00,,,0.00,0.0,meteohub,2013-03-16 23:43:00,
2013-03-16 19:48:00,32.5,22.8,29.86,SSW,213,0.0,0.0,67,0.00,,,0.00,0.0,meteohub,2013-03-16 23:48:00,
2013-03-16 19:53:00,32.5,23.9,29.86,SSW,213,0.0,0.0,70,0.00,,,0.00,0.0,meteohub,2013-03-16 23:53:00,
2013-03-16 19:58:00,32.4,23.0,29.86,SSW,213,0.0,0.0,68,0.00,,,0.00,0.0,meteohub,2013-03-16 23:58:00,
2013-03-16 20:03:00,32.2,22.8,29.86,SSW,213,0.0,0.0,68,0.00,,,0.00,0.0,meteohub,2013-03-17 00:03:00,
2013-03-16 20:09:00,32.2,22.1,29.86,SSW,213,0.0,0.0,66,0.00,,,0.00,0.0,meteohub,2013-03-17 00:09:00,
2013-03-16 20:14:00,32.2,22.5,29.87,SSW,213,0.0,0.0,67,0.00,,,0.00,0.0,meteohub,2013-03-17 00:14:00,
2013-03-16 20:19:00,32.0,21.6,29.87,SSW,213,0.0,0.0,65,0.00,,,0.00,0.0,meteohub,2013-03-17 00:19:00,
2013-03-16 20:24:00,31.8,21.7,29.87,SSW,213,0.0,0.0,66,0.00,,,0.00,0.0,meteohub,2013-03-17 00:24:00,
2013-03-16 20:29:00,31.8,21.4,29.87,SSW,213,0.0,0.0,65,0.00,,,0.00,0.0,meteohub,2013-03-17 00:29:00,
2013-03-16 20:35:00,31.8,21.7,29.87,SSW,213,0.0,0.0,66,0.00,,,0.00,0.0,meteohub,2013-03-17 00:35:00,
2013-03-16 20:40:00,31.8,22.1,29.88,SSW,213,0.0,0.0,67,0.00,,,0.00,0.0,meteohub,2013-03-17 00:40:00,
2013-03-16 20:45:00,31.8,21.7,29.88,SSW,213,0.0,0.0,66,0.00,,,0.00,0.0,meteohub,2013-03-17 00:45:00,
2013-03-16 20:50:00,31.8,21.7,29.88,SSW,213,0.0,0.0,66,0.00,,,0.00,0.0,meteohub,2013-03-17 00:50:00,
2013-03-16 20:56:00,31.6,22.3,29.88,SSW,213,0.0,0.0,68,0.00,,,0.00,0.0,meteohub,2013-03-17 00:56:00,
2013-03-16 21:01:00,31.6,22.3,29.88,SSW,213,0.0,0.0,68,0.00,,,0.00,0.0,meteohub,2013-03-17 01:01:00,
2013-03-16 21:06:00,31.6,22.6,29.88,SSW,213,0.0,0.0,69,0.00,,,0.00,0.0,meteohub,2013-03-17 01:06:00,
2013-03-16 21:12:00,31.6,22.3,29.88,SSW,213,1.0,0.0,68,0.00,,,0.00,0.0,meteohub,2013-03-17 01:12:00,
2013-03-16 21:17:00,31.5,21.4,29.88,SW,215,0.0,2.0,66,0.00,,,0.00,0.0,meteohub,2013-03-17 01:17:00,
2013-03-16 21:22:00,31.5,21.7,29.88,SW,215,0.0,2.0,67,0.00,,,0.00,0.0,meteohub,2013-03-17 01:22:00,
2013-03-16 21:27:00,31.5,21.4,29.88,SW,215,0.0,2.0,66,0.00,,,0.00,0.0,meteohub,2013-03-17 01:27:00,
2013-03-16 21:32:00,31.5,21.0,29.89,SW,214,0.0,1.0,65,0.00,,,0.00,0.0,meteohub,2013-03-17 01:32:00,
2013-03-16 21:37:00,31.5,21.4,29.89,SW,214,0.0,2.0,66,0.00,,,0.00,0.0,meteohub,2013-03-17 01:37:00,
2013-03-16 21:42:00,31.5,21.4,29.89,ENE,70,0.0,2.0,66,0.00,,,0.00,0.0,meteohub,2013-03-17 01:42:00,
2013-03-16 21:47:00,31.5,21.4,29.90,ENE,70,1.0,2.0,66,0.00,,,0.00,0.0,meteohub,2013-03-17 01:47:00,
2013-03-16 21:52:00,31.5,21.4,29.90,NE,36,0.0,2.0,66,0.00,,,0.00,0.0,meteohub,2013-03-17 01:52:00,
2013-03-16 21:58:00,31.5,21.4,29.90,NNE,26,0.0,2.0,66,0.00,,,0.00,0.0,meteohub,2013-03-17 01:58:00,
2013-03-16 22:03:00,31.3,21.6,29.90,NNE,26,0.0,2.0,67,0.00,,,0.00,0.0,meteohub,2013-03-17 02:03:00,
2013-03-16 22:08:00,31.3,21.6,29.91,NNE,26,0.0,1.0,67,0.00,,,0.00,0.0,meteohub,2013-03-17 02:08:00,
2013-03-16 22:13:00,31.1,21.7,29.91,NNE,26,0.0,1.0,68,0.00,,,0.00,0.0,meteohub,2013-03-17 02:13:00,
2013-03-16 22:18:00,30.9,21.6,29.91,NNE,26,0.0,1.0,68,0.00,,,0.00,0.0,meteohub,2013-03-17 02:18:00,
2013-03-16 22:23:00,30.9,21.9,29.91,NE,35,0.0,1.0,69,0.00,,,0.00,0.0,meteohub,2013-03-17 02:23:00,
2013-03-16 22:29:00,30.7,21.4,29.91,NE,35,0.0,2.0,68,0.00,,,0.00,0.0,meteohub,2013-03-17 02:29:00,
2013-03-16 22:34:00,30.6,21.6,29.92,NE,35,0.0,2.0,69,0.00,,,0.00,0.0,meteohub,2013-03-17 02:34:00,
2013-03-16 22:39:00,30.4,21.7,29.92,NE,35,0.0,2.0,70,0.00,,,0.00,0.0,meteohub,2013-03-17 02:39:00,
2013-03-16 22:44:00,30.2,21.6,29.92,NE,35,0.0,0.0,70,0.00,,,0.00,0.0,meteohub,2013-03-17 02:44:00,
2013-03-16 22:50:00,30.0,21.7,29.92,NE,35,0.0,0.0,71,0.00,,,0.00,0.0,meteohub,2013-03-17 02:50:00,
2013-03-16 22:55:00,30.0,21.4,29.92,NE,35,0.0,1.0,70,0.00,,,0.00,0.0,meteohub,2013-03-17 02:55:00,
2013-03-16 23:00:00,29.8,21.2,29.92,NE,35,0.0,2.0,70,0.00,,,0.00,0.0,meteohub,2013-03-17 03:00:00,
2013-03-16 23:05:00,29.7,21.7,29.92,NE,40,2.0,2.0,72,0.00,,,0.00,0.0,meteohub,2013-03-17 03:05:00,
2013-03-16 23:10:00,29.5,21.2,29.92,NE,40,0.0,2.0,71,0.00,,,0.00,0.0,meteohub,2013-03-17 03:10:00,
2013-03-16 23:15:00,29.5,21.2,29.92,NE,40,0.0,2.0,71,0.00,,,0.00,0.0,meteohub,2013-03-17 03:15:00,
2013-03-16 23:20:00,29.1,21.6,29.93,NE,40,0.0,2.0,73,0.00,,,0.00,0.0,meteohub,2013-03-17 03:20:00,
2013-03-16 23:25:00,29.1,21.2,29.93,NE,40,0.0,0.0,72,0.00,,,0.00,0.0,meteohub,2013-03-17 03:25:00,
2013-03-16 23:31:00,28.9,21.4,29.93,NE,40,0.0,2.0,73,0.00,,,0.00,0.0,meteohub,2013-03-17 03:31:00,
2013-03-16 23:36:00,28.8,21.2,29.93,NE,40,0.0,2.0,73,0.00,,,0.00,0.0,meteohub,2013-03-17 03:36:00,
2013-03-16 23:41:00,28.8,20.8,29.93,NE,40,0.0,2.0,72,0.00,,,0.00,0.0,meteohub,2013-03-17 03:41:00,
2013-03-16 23:47:00,28.8,21.6,29.94,South,169,0.0,2.0,74,0.00,,,0.00,0.0,meteohub,2013-03-17 03:47:00,
2013-03-16 23:52:00,28.8,21.9,29.94,South,169,0.0,2.0,75,0.00,,,0.00,0.0,meteohub,2013-03-17 03:52:00,
2013-03-16 23:57:00,28.6,21.4,29.94,South,169,0.0,2.0,74,0.00,,,0.00,0.0,meteohub,2013-03-17 03:57:00,